Time,TemperatureF,DewpointF,PressureIn,WindDirection,WindDirectionDegrees,WindSpeedMPH,WindSpeedGustMPH,Humidity,HourlyPrecipIn,Conditions,Clouds,dailyrainin,SoftwareType,DateUTC
2013-04-08 00:01:00,50.0,48.0,29.81,ESE,110,7.0,-999.0,93,-99.99,,,-99.99,,2013-04-08 07:01:00,
2013-04-08 00:11:00,52.0,48.0,29.81,South,180,7.0,-999.0,87,-99.99,,,-99.99,,2013-04-08 07:11:00,
2013-04-08 00:21:00,52.0,48.0,29.80,South,180,15.0,-999.0,87,-99.99,,,-99.99,,2013-04-08 07:21:00,
2013-04-08 00:32:00,52.0,48.0,29.80,South,180,15.0,-999.0,87,-99.99,,,-99.99,,2013-04-08 07:32:00,
2013-04-08 00:41:00,52.0,48.0,29.79,SSE,150,6.0,-999.0,87,-99.99,,,-99.99,,2013-04-08 07:41:00,
2013-04-08 00:52:00,52.0,48.0,29.79,SSE,150,5.0,-999.0,87,-99.99,,,-99.99,,2013-04-08 07:52:00,
2013-04-08 01:02:00,52.0,48.0,29.78,SSE,160,8.0,-999.0,87,-99.99,,,-99.99,,2013-04-08 08:02:00,
2013-04-08 01:11:00,52.0,48.0,29.78,SSE,160,8.0,-999.0,87,-99.99,,,-99.99,,2013-04-08 08:11:00,
2013-04-08 01:21:00,50.0,48.0,29.77,SSW,200,6.0,-999.0,93,-99.99,,,-99.99,,2013-04-08 08:21:00,
2013-04-08 01:31:00,52.0,48.0,29.77,South,190,5.0,-999.0,87,-99.99,,,-99.99,,2013-04-08 08:31:00,
2013-04-08 01:42:00,52.0,45.0,29.76,WNW,290,9.0,-999.0,76,-99.99,,,-99.99,,2013-04-08 08:42:00,
2013-04-08 01:52:00,52.0,43.0,29.76,West,280,13.0,-999.0,71,-99.99,,,-99.99,,2013-04-08 08:52:00,
2013-04-08 02:01:00,52.0,43.0,29.76,West,280,13.0,-999.0,71,-99.99,,,-99.99,,2013-04-08 09:01:00,
2013-04-08 02:11:00,50.0,41.0,29.76,NW,310,7.0,-999.0,71,-99.99,,,-99.99,,2013-04-08 09:11:00,
2013-04-08 02:21:00,48.0,41.0,29.77,WNW,300,7.0,-999.0,76,-99.99,,,-99.99,,2013-04-08 09:21:00,
2013-04-08 02:32:00,50.0,41.0,29.77,WNW,300,8.0,-999.0,71,-99.99,,,-99.99,,2013-04-08 09:32:00,
2013-04-08 02:42:00,48.0,41.0,29.77,WNW,300,8.0,-999.0,76,-99.99,,,-99.99,,2013-04-08 09:42:00,
2013-04-08 02:53:00,48.0,41.0,29.77,WNW,290,9.0,-999.0,76,-99.99,,,-99.99,,2013-04-08 09:53:00,
2013-04-08 03:02:00,48.0,41.0,29.77,WNW,290,9.0,-999.0,76,-99.99,,,-99.99,,2013-04-08 10:02:00,
2013-04-08 03:12:00,50.0,41.0,29.77,WNW,290,12.0,18.0,71,-99.99,,,-99.99,,2013-04-08 10:12:00,
2013-04-08 03:22:00,50.0,41.0,29.78,West,280,8.0,-999.0,71,-99.99,,,-99.99,,2013-04-08 10:22:00,
2013-04-08 03:32:00,50.0,41.0,29.78,WNW,290,10.0,-999.0,71,-99.99,,,-99.99,,2013-04-08 10:32:00,
2013-04-08 03:41:00,50.0,41.0,29.79,WNW,300,13.0,-999.0,71,-99.99,,,-99.99,,2013-04-08 10:41:00,
2013-04-08 03:52:00,50.0,41.0,29.80,WNW,290,13.0,20.0,71,-99.99,,,-99.99,,2013-04-08 10:52:00,
2013-04-08 04:02:00,50.0,41.0,29.80,WNW,290,13.0,20.0,71,-99.99,,,-99.99,,2013-04-08 11:02:00,
2013-04-08 04:11:00,50.0,41.0,29.81,WNW,290,14.0,20.0,71,-99.99,,,-99.99,,2013-04-08 11:11:00,
2013-04-08 04:22:00,50.0,43.0,29.82,WNW,300,15.0,22.0,76,-99.99,,,-99.99,,2013-04-08 11:22:00,
2013-04-08 04:32:00,50.0,45.0,29.82,NW,310,12.0,20.0,81,-99.99,,,-99.99,,2013-04-08 11:32:00,
2013-04-08 04:42:00,50.0,45.0,29.82,NW,310,9.0,20.0,81,-99.99,,,-99.99,,2013-04-08 11:42:00,
2013-04-08 04:52:00,48.0,45.0,29.82,NW,310,7.0,-999.0,87,-99.99,,,-99.99,,2013-04-08 11:52:00,
2013-04-08 05:01:00,48.0,45.0,29.82,NW,310,7.0,-999.0,87,-99.99,,,-99.99,,2013-04-08 12:01:00,
2013-04-08 05:21:00,50.0,43.0,29.82,NW,310,10.0,18.0,76,-99.99,,,-99.99,,2013-04-08 12:21:00,
2013-04-08 05:32:00,50.0,41.0,29.82,WNW,300,9.0,-999.0,71,-99.99,,,-99.99,,2013-04-08 12:32:00,
2013-04-08 05:42:00,50.0,39.0,29.82,NW,320,10.0,16.0,66,-99.99,,,-99.99,,2013-04-08 12:42:00,
2013-04-08 05:52:00,50.0,37.0,29.82,NW,310,14.0,22.0,61,-99.99,,,-99.99,,2013-04-08 12:52:00,
2013-04-08 06:02:00,50.0,37.0,29.82,NW,310,14.0,22.0,61,-99.99,,,-99.99,,2013-04-08 13:02:00,
2013-04-08 06:11:00,52.0,36.0,29.82,NW,320,13.0,22.0,53,-99.99,,,-99.99,,2013-04-08 13:11:00,
2013-04-08 06:21:00,52.0,34.0,29.83,NW,320,15.0,22.0,50,-99.99,,,-99.99,,2013-04-08 13:21:00,
2013-04-08 06:32:00,52.0,34.0,29.83,NW,310,15.0,22.0,50,-99.99,,,-99.99,,2013-04-08 13:32:00,
2013-04-08 06:41:00,52.0,32.0,29.84,NW,320,22.0,-999.0,46,-99.99,,,-99.99,,2013-04-08 13:41:00,
2013-04-08 06:52:00,52.0,32.0,29.85,NW,310,25.0,29.0,46,-99.99,,,-99.99,,2013-04-08 13:52:00,
2013-04-08 07:01:00,52.0,32.0,29.85,NW,310,25.0,29.0,46,-99.99,,,-99.99,,2013-04-08 14:01:00,
2013-04-08 07:11:00,52.0,30.0,29.87,NW,320,17.0,28.0,43,-99.99,,,-99.99,,2013-04-08 14:11:00,
2013-04-08 07:21:00,52.0,30.0,29.87,NW,320,18.0,32.0,43,-99.99,,,-99.99,,2013-04-08 14:21:00,
2013-04-08 07:32:00,52.0,30.0,29.88,NW,310,20.0,30.0,43,-99.99,,,-99.99,,2013-04-08 14:32:00,
2013-04-08 07:41:00,52.0,30.0,29.88,NW,320,32.0,32.0,43,-99.99,,,-99.99,,2013-04-08 14:41:00,
2013-04-08 07:52:00,54.0,30.0,29.89,NW,310,27.0,32.0,40,-99.99,,,-99.99,,2013-04-08 14:52:00,
2013-04-08 08:01:00,54.0,30.0,29.89,NW,310,27.0,32.0,40,-99.99,,,-99.99,,2013-04-08 15:01:00,
2013-04-08 08:11:00,54.0,30.0,29.90,NW,320,28.0,32.0,40,-99.99,,,-99.99,,2013-04-08 15:11:00,
2013-04-08 08:21:00,54.0,30.0,29.90,NW,320,22.0,32.0,40,-99.99,,,-99.99,,2013-04-08 15:21:00,
2013-04-08 08:32:00,54.0,30.0,29.91,NW,320,24.0,37.0,40,-99.99,,,-99.99,,2013-04-08 15:32:00,
2013-04-08 08:42:00,54.0,28.0,29.91,NW,320,24.0,43.0,37,-99.99,,,-99.99,,2013-04-08 15:42:00,
2013-04-08 08:53:00,55.0,30.0,29.91,NNW,340,28.0,33.0,37,-99.99,,,-99.99,,2013-04-08 15:53:00,
2013-04-08 09:02:00,55.0,30.0,29.91,NNW,340,28.0,33.0,37,-99.99,,,-99.99,,2013-04-08 16:02:00,
2013-04-08 09:12:00,55.0,28.0,29.92,NNW,330,27.0,43.0,35,-99.99,,,-99.99,,2013-04-08 16:12:00,
2013-04-08 09:22:00,55.0,30.0,29.93,NW,320,27.0,39.0,37,-99.99,,,-99.99,,2013-04-08 16:22:00,
2013-04-08 09:32:00,55.0,30.0,29.93,NW,320,27.0,39.0,37,-99.99,,,-99.99,,2013-04-08 16:32:00,
2013-04-08 09:41:00,55.0,30.0,29.94,NW,320,30.0,37.0,37,-99.99,,,-99.99,,2013-04-08 16:41:00,
2013-04-08 09:53:00,55.0,30.0,29.93,NNW,340,37.0,44.0,37,-99.99,,,-99.99,,2013-04-08 16:53:00,
2013-04-08 10:02:00,55.0,30.0,29.93,NNW,340,37.0,44.0,37,-99.99,,,-99.99,,2013-04-08 17:02:00,
2013-04-08 10:11:00,57.0,30.0,29.94,NNW,330,27.0,41.0,35,-99.99,,,-99.99,,2013-04-08 17:11:00,
2013-04-08 10:22:00,57.0,30.0,29.96,NW,320,32.0,39.0,35,-99.99,,,-99.99,,2013-04-08 17:22:00,
2013-04-08 10:32:00,57.0,30.0,29.96,NW,320,28.0,44.0,35,-99.99,,,-99.99,,2013-04-08 17:32:00,
2013-04-08 10:42:00,57.0,30.0,29.96,NW,320,20.0,44.0,35,-99.99,,,-99.99,,2013-04-08 17:42:00,
2013-04-08 10:52:00,57.0,30.0,29.96,NNW,330,30.0,39.0,35,-99.99,,,-99.99,,2013-04-08 17:52:00,
2013-04-08 11:02:00,57.0,30.0,29.96,NNW,330,30.0,39.0,35,-99.99,,,-99.99,,2013-04-08 18:02:00,
2013-04-08 11:11:00,59.0,30.0,29.95,NNW,330,29.0,45.0,33,-99.99,,,-99.99,,2013-04-08 18:11:00,
2013-04-08 11:22:00,59.0,30.0,29.95,NW,320,24.0,43.0,33,-99.99,,,-99.99,,2013-04-08 18:22:00,
2013-04-08 11:32:00,59.0,30.0,29.96,NNW,330,30.0,39.0,33,-99.99,,,-99.99,,2013-04-08 18:32:00,
2013-04-08 11:41:00,61.0,30.0,29.96,NW,320,28.0,37.0,31,-99.99,,,-99.99,,2013-04-08 18:41:00,
2013-04-08 11:52:00,61.0,32.0,29.96,NW,320,33.0,39.0,33,-99.99,,,-99.99,,2013-04-08 18:52:00,
2013-04-08 12:01:00,61.0,32.0,29.96,NW,320,33.0,39.0,33,-99.99,,,-99.99,,2013-04-08 19:01:00,
2013-04-08 12:11:00,61.0,32.0,29.97,NNW,330,27.0,36.0,33,-99.99,,,-99.99,,2013-04-08 19:11:00,
2013-04-08 12:21:00,61.0,32.0,29.96,NNW,330,22.0,37.0,33,-99.99,,,-99.99,,2013-04-08 19:21:00,
2013-04-08 12:32:00,61.0,32.0,29.96,NW,320,23.0,37.0,33,-99.99,,,-99.99,,2013-04-08 19:32:00,
2013-04-08 12:42:00,61.0,32.0,29.96,NW,320,25.0,36.0,33,-99.99,,,-99.99,,2013-04-08 19:42:00,
2013-04-08 12:52:00,63.0,32.0,29.96,NNW,340,25.0,33.0,31,-99.99,,,-99.99,,2013-04-08 19:52:00,
2013-04-08 13:01:00,63.0,32.0,29.96,NNW,340,25.0,33.0,31,-99.99,,,-99.99,,2013-04-08 20:01:00,
2013-04-08 13:11:00,63.0,32.0,29.96,NW,310,21.0,35.0,31,-99.99,,,-99.99,,2013-04-08 20:11:00,
2013-04-08 13:22:00,63.0,32.0,29.96,NW,320,20.0,32.0,31,-99.99,,,-99.99,,2013-04-08 20:22:00,
2013-04-08 13:32:00,64.0,32.0,29.96,NW,320,21.0,33.0,29,-99.99,,,-99.99,,2013-04-08 20:32:00,
2013-04-08 13:42:00,64.0,32.0,29.96,NNW,330,25.0,32.0,29,-99.99,,,-99.99,,2013-04-08 20:42:00,
2013-04-08 13:52:00,64.0,32.0,29.96,NW,320,25.0,35.0,29,-99.99,,,-99.99,,2013-04-08 20:52:00,
2013-04-08 14:01:00,64.0,32.0,29.96,NW,320,25.0,35.0,29,-99.99,,,-99.99,,2013-04-08 21:01:00,
2013-04-08 14:11:00,64.0,32.0,29.96,NW,320,24.0,32.0,29,-99.99,,,-99.99,,2013-04-08 21:11:00,
2013-04-08 14:21:00,64.0,32.0,29.95,NW,320,25.0,31.0,29,-99.99,,,-99.99,,2013-04-08 21:21:00,
2013-04-08 14:32:00,64.0,32.0,29.95,NNW,340,17.0,32.0,29,-99.99,,,-99.99,,2013-04-08 21:32:00,
2013-04-08 14:42:00,66.0,32.0,29.95,NW,320,21.0,32.0,27,-99.99,,,-99.99,,2013-04-08 21:42:00,
2013-04-08 14:52:00,66.0,32.0,29.94,NNW,340,13.0,31.0,27,-99.99,,,-99.99,,2013-04-08 21:52:00,
2013-04-08 15:02:00,66.0,32.0,29.94,NNW,340,13.0,31.0,27,-99.99,,,-99.99,,2013-04-08 22:02:00,
2013-04-08 15:12:00,66.0,32.0,29.94,NW,320,29.0,33.0,27,-99.99,,,-99.99,,2013-04-08 22:12:00,
2013-04-08 15:22:00,66.0,32.0,29.94,NW,320,17.0,33.0,27,-99.99,,,-99.99,,2013-04-08 22:22:00,
2013-04-08 15:31:00,66.0,32.0,29.94,NW,320,17.0,33.0,27,-99.99,,,-99.99,,2013-04-08 22:31:00,
2013-04-08 15:42:00,66.0,32.0,29.94,NW,320,18.0,32.0,27,-99.99,,,-99.99,,2013-04-08 22:42:00,
2013-04-08 15:53:00,66.0,30.0,29.94,NW,320,28.0,32.0,25,-99.99,,,-99.99,,2013-04-08 22:53:00,
2013-04-08 16:02:00,66.0,30.0,29.94,NW,310,18.0,31.0,25,-99.99,,,-99.99,,2013-04-08 23:02:00,
2013-04-08 16:11:00,66.0,30.0,29.94,WNW,300,22.0,32.0,25,-99.99,,,-99.99,,2013-04-08 23:11:00,
2013-04-08 16:31:00,68.0,28.0,29.93,NNW,330,27.0,31.0,22,-99.99,,,-99.99,,2013-04-08 23:31:00,
2013-04-08 16:41:00,68.0,28.0,29.93,NNW,330,20.0,29.0,22,-99.99,,,-99.99,,2013-04-08 23:41:00,
2013-04-08 16:52:00,68.0,28.0,29.93,NW,320,23.0,31.0,22,-99.99,,,-99.99,,2013-04-08 23:52:00,
2013-04-08 17:01:00,68.0,28.0,29.93,NW,320,23.0,31.0,22,-99.99,,,-99.99,,2013-04-09 00:01:00,
2013-04-08 17:21:00,68.0,28.0,29.94,NNW,330,21.0,27.0,22,-99.99,,,-99.99,,2013-04-09 00:21:00,
2013-04-08 17:31:00,68.0,28.0,29.94,NW,320,22.0,30.0,22,-99.99,,,-99.99,,2013-04-09 00:31:00,
2013-04-08 17:41:00,68.0,28.0,29.94,NNW,330,25.0,30.0,22,-99.99,,,-99.99,,2013-04-09 00:41:00,
2013-04-08 17:52:00,68.0,27.0,29.94,NNW,340,28.0,31.0,20,-99.99,,,-99.99,,2013-04-09 00:52:00,
2013-04-08 18:02:00,68.0,27.0,29.94,NNW,340,28.0,31.0,20,-99.99,,,-99.99,,2013-04-09 01:02:00,
2013-04-08 18:11:00,66.0,28.0,29.93,NNW,330,14.0,27.0,24,-99.99,,,-99.99,,2013-04-09 01:11:00,
2013-04-08 18:21:00,66.0,28.0,29.94,NNW,340,17.0,24.0,24,-99.99,,,-99.99,,2013-04-09 01:21:00,
2013-04-08 18:31:00,66.0,28.0,29.94,NNW,330,16.0,24.0,24,-99.99,,,-99.99,,2013-04-09 01:31:00,
2013-04-08 18:41:00,66.0,28.0,29.94,NNW,330,18.0,29.0,24,-99.99,,,-99.99,,2013-04-09 01:41:00,
2013-04-08 18:52:00,66.0,27.0,29.94,NW,320,13.0,23.0,22,-99.99,,,-99.99,,2013-04-09 01:52:00,
2013-04-08 19:02:00,66.0,27.0,29.94,NW,320,13.0,23.0,22,-99.99,,,-99.99,,2013-04-09 02:02:00,
2013-04-08 19:11:00,64.0,28.0,29.94,NW,320,14.0,25.0,25,-99.99,,,-99.99,,2013-04-09 02:11:00,
2013-04-08 19:21:00,63.0,30.0,29.95,NW,320,15.0,-999.0,29,-99.99,,,-99.99,,2013-04-09 02:21:00,
2013-04-08 19:32:00,63.0,30.0,29.95,NW,320,10.0,-999.0,29,-99.99,,,-99.99,,2013-04-09 02:32:00,
2013-04-08 19:42:00,63.0,30.0,29.95,NNW,330,9.0,-999.0,29,-99.99,,,-99.99,,2013-04-09 02:42:00,
2013-04-08 19:52:00,61.0,30.0,29.95,NW,320,15.0,-999.0,31,-99.99,,,-99.99,,2013-04-09 02:52:00,
2013-04-08 20:01:00,61.0,30.0,29.95,NW,320,15.0,-999.0,31,-99.99,,,-99.99,,2013-04-09 03:01:00,
2013-04-08 20:21:00,59.0,30.0,29.96,NW,320,8.0,-999.0,33,-99.99,,,-99.99,,2013-04-09 03:21:00,
2013-04-08 20:32:00,59.0,32.0,29.97,NW,320,9.0,-999.0,35,-99.99,,,-99.99,,2013-04-09 03:32:00,
2013-04-08 20:42:00,59.0,32.0,29.97,NW,310,9.0,-999.0,35,-99.99,,,-99.99,,2013-04-09 03:42:00,
2013-04-08 20:53:00,57.0,32.0,29.98,NW,320,10.0,-999.0,38,-99.99,,,-99.99,,2013-04-09 03:53:00,
2013-04-08 21:02:00,57.0,32.0,29.98,NW,320,10.0,-999.0,38,-99.99,,,-99.99,,2013-04-09 04:02:00,
2013-04-08 21:12:00,57.0,32.0,29.98,NW,320,10.0,-999.0,38,-99.99,,,-99.99,,2013-04-09 04:12:00,
2013-04-08 21:22:00,55.0,34.0,29.99,NNW,330,9.0,-999.0,43,-99.99,,,-99.99,,2013-04-09 04:22:00,
2013-04-08 21:32:00,57.0,34.0,30.00,NW,320,9.0,-999.0,41,-99.99,,,-99.99,,2013-04-09 04:32:00,
2013-04-08 21:42:00,57.0,34.0,30.00,NW,320,9.0,-999.0,41,-99.99,,,-99.99,,2013-04-09 04:42:00,
2013-04-08 21:53:00,57.0,34.0,30.00,NW,320,9.0,-999.0,41,-99.99,,,-99.99,,2013-04-09 04:53:00,
2013-04-08 22:02:00,55.0,34.0,30.00,NW,320,10.0,-999.0,43,-99.99,,,-99.99,,2013-04-09 05:02:00,
2013-04-08 22:12:00,57.0,34.0,30.01,NW,310,10.0,-999.0,41,-99.99,,,-99.99,,2013-04-09 05:12:00,
2013-04-08 22:21:00,55.0,34.0,30.02,NW,320,12.0,-999.0,43,-99.99,,,-99.99,,2013-04-09 05:21:00,
2013-04-08 22:32:00,55.0,34.0,30.02,NW,320,10.0,-999.0,43,-99.99,,,-99.99,,2013-04-09 05:32:00,
2013-04-08 22:42:00,54.0,34.0,30.02,NW,320,9.0,-999.0,46,-99.99,,,-99.99,,2013-04-09 05:42:00,
2013-04-08 22:52:00,54.0,34.0,30.02,NW,320,10.0,-999.0,46,-99.99,,,-99.99,,2013-04-09 05:52:00,
2013-04-08 23:02:00,54.0,34.0,30.02,NW,320,10.0,-999.0,46,-99.99,,,-99.99,,2013-04-09 06:02:00,
2013-04-08 23:12:00,55.0,34.0,30.02,NW,320,12.0,-999.0,43,-99.99,,,-99.99,,2013-04-09 06:12:00,
2013-04-08 23:22:00,55.0,34.0,30.02,NW,320,12.0,-999.0,43,-99.99,,,-99.99,,2013-04-09 06:22:00,
2013-04-08 23:31:00,55.0,34.0,30.02,NW,320,12.0,-999.0,43,-99.99,,,-99.99,,2013-04-09 06:31:00,
2013-04-08 23:42:00,55.0,34.0,30.02,NW,320,12.0,-999.0,43,-99.99,,,-99.99,,2013-04-09 06:42:00,